Location: Sweet Grass
(48.9965°N, 111.9649°W)
Time: 18:26:35
(UTC+00:00)

DX 1 - Pass Details

Date: 10 April 2023
Orbit: 615 x 625 km, 98.4° (Epoch: 04 June)

Event Time Altitude Azimuth Distance (km) Brightness Sun altitude
Rises 04:41:30 0° 30° (NNE) 2,899 ? -22.4°
Reaches altitude 10° 04:44:29 10° 52° (NE) 1,989 ? -22.7°
Enters shadow 04:44:35 10° 53° (NE) 1,968 ? -22.7°
